Vorticity
nan nan nan nan nan nan nan nan nan nan nan nan nan nan nan nan nan nan nan nan nan nan nan nan nan nan nan nan nan nan nan nan nan nan nan nan nan nan nan nan nan nan nan nan nan nan nan nan nan nan nan nan nan nan nan nan nan nan nan nan nan nan nan nan nan nan nan nan nan nan nan nan nan nan nan nan nan nan nan nan nan nan nan nan nan nan
nan 6 8 9 7 5 8 9 8 7 6 6 6 6 6 6 7 8 11 11 11 11 10 10 11 11 12 16 15 12 10 8 7 6 6 6 6 7 7 7 8 8 9 9 10 11 12 13 13 13 13 12 11 10 10 10 10 9 10 10 10 11 12 13 14 14 14 14 14 14 15 17 18 16 11 11 17 24 30 29 22 17 13 11 10 nan
nan 5 5 8 8 7 7 8 9 8 6 5 5 4 3 5 6 6 7 9 9 9 8 8 8 10 11 14 16 15 10 9 7 7 7 7 7 7 7 8 8 8 8 9 9 9 10 11 12 13 13 12 12 11 10 10 10 10 10 10 10 10 11 11 12 13 13 13 13 13 15 18 21 22 16 12 14 20 28 31 27 21 16 12 11 nan
nan 6 7 10 11 10 8 7 8 9 8 8 8 7 7 9 9 9 8 8 9 9 9 8 7 8 10 13 16 17 11 8 7 7 7 7 7 7 7 8 8 8 8 8 8 9 9 9 10 11 12 12 12 12 11 11 10 10 10 10 10 10 10 10 11 11 12 12 12 12 13 16 20 23 21 16 15 16 23 29 29 25 19 14 12 nan
nan 9 10 10 11 12 12 11 10 10 10 11 11 11 12 12 12 11 11 11 10 10 11 11 10 8 7 9 12 13 12 9 8 7 7 7 7 7 7 7 8 8 8 8 8 9 9 9 9 10 11 11 12 12 12 11 11 11 11 11 10 11 10 10 10 11 11 12 11 11 11 12 15 19 21 19 16 15 17 22 26 26 23 18 16 nan
nan 10 10 10 10 12 14 13 12 11 11 12 12 12 12 12 12 12 12 13 12 12 11 12 11 10 8 7 8 10 13 12 11 10 9 8 8 8 8 8 8 8 9 9 9 9 9 10 10 10 10 11 11 12 12 12 12 12 11 11 11 11 10 10 10 10 11 11 12 11 11 10 12 14 17 19 18 16 15 16 20 23 23 21 20 nan
nan 10 9 9 9 10 11 11 11 10 10 10 12 12 12 12 12 11 11 11 11 11 10 11 11 11 11 10 11 14 18 19 20 20 18 16 15 14 13 11 11 10 10 10 10 10 10 10 10 10 10 11 11 11 12 12 12 12 12 11 11 11 11 11 11 10 10 11 12 12 11 10 10 10 13 16 17 17 15 14 15 17 18 18 19 nan
nan 9 9 7 7 8 9 9 10 10 9 9 10 11 11 10 11 11 10 10 10 10 10 11 11 11 12 13 15 17 18 21 24 27 26 27 26 24 20 18 15 13 12 12 12 11 11 11 10 10 10 10 11 11 12 12 12 12 11 11 11 11 11 11 11 11 11 11 12 13 12 10 9 8 10 13 15 17 16 14 13 13 13 12 12 nan
nan 8 9 9 7 7 8 10 10 10 9 9 9 9 9 7 8 9 9 9 10 11 10 10 10 11 11 13 15 16 15 14 13 12 14 17 18 19 19 19 19 18 15 14 12 11 11 10 10 9 9 9 9 10 11 11 12 12 12 11 11 11 12 12 12 11 11 11 12 13 12 11 10 8 9 11 13 15 16 15 14 13 12 10 9 nan
nan 9 10 11 11 10 9 10 11 12 11 10 10 9 9 9 8 8 8 8 9 10 10 10 10 10 11 13 14 15 16 15 12 8 5 2 2 3 7 11 14 15 14 13 12 11 10 10 9 9 9 9 9 9 11 12 12 12 12 12 11 11 11 12 12 12 11 11 12 12 12 11 10 9 9 10 12 13 15 16 15 14 13 11 10 nan
nan 13 13 13 13 13 12 11 12 13 13 11 11 12 11 11 10 9 8 8 7 8 8 9 10 10 9 11 12 13 15 17 21 23 21 17 14 13 13 15 14 14 16 16 15 14 12 11 10 10 10 10 11 11 12 13 14 14 13 13 12 12 12 12 12 12 12 12 12 12 12 11 11 10 11 11 11 12 13 15 15 14 13 11 11 nan
nan 14 14 13 12 12 12 12 12 13 12 11 11 11 12 13 12 11 11 9 7 7 8 9 10 10 9 8 10 12 12 13 17 21 26 28 29 28 28 26 25 25 26 25 25 23 18 15 14 14 13 13 13 13 13 14 14 14 14 15 14 13 13 13 13 13 12 12 12 12 12 11 11 11 12 12 11 11 11 13 14 14 13 12 10 nan
nan 10 11 11 10 9 10 10 10 11 10 10 10 10 11 12 12 12 13 12 11 10 10 8 10 12 12 9 9 10 11 11 12 13 15 18 21 22 23 22 22 24 25 25 26 25 22 21 22 21 17 15 14 14 15 14 13 14 15 15 15 15 15 14 14 13 13 13 13 12 12 11 11 11 13 14 14 12 10 11 13 14 14 13 11 nan
nan 8 8 8 8 9 10 10 9 9 9 9 10 10 9 9 11 11 13 13 13 13 12 10 9 10 12 11 10 9 9 10 10 11 11 12 13 13 12 12 13 13 14 15 16 16 18 21 23 24 23 20 18 17 16 13 12 12 14 14 15 16 16 15 15 15 14 14 14 13 12 11 10 11 13 16 16 14 11 11 12 14 15 15 13 nan
nan 9 7 7 8 9 9 11 11 11 11 10 9 9 10 10 10 11 10 11 13 13 13 13 11 10 11 12 11 11 9 8 8 9 9 11 12 12 10 9 9 10 10 9 10 12 16 17 17 18 22 18 14 11 7 7 8 10 11 12 13 14 15 16 16 16 16 15 15 14 13 11 10 10 12 16 18 17 14 11 11 12 14 15 15 nan
nan 10 9 8 8 9 9 10 11 11 12 12 11 10 11 11 11 11 10 11 11 12 12 13 13 12 13 14 13 12 10 9 9 9 9 10 12 14 11 8 8 9 9 9 10 12 16 15 13 12 13 10 6 4 3 4 6 8 9 10 11 13 14 15 15 16 16 16 16 15 14 12 11 10 11 14 18 19 16 13 11 11 12 14 15 nan
nan 10 11 10 10 10 10 10 10 10 11 12 12 12 11 11 10 10 10 11 10 11 11 11 11 11 12 15 16 16 12 9 9 10 11 10 11 13 11 8 8 8 9 9 9 10 11 12 11 10 9 6 5 6 6 6 7 7 8 9 10 11 12 14 15 16 16 17 17 16 15 14 12 10 10 12 17 20 19 17 14 11 10 11 13 nan
nan 11 11 11 11 11 11 11 11 11 11 11 12 12 12 12 11 11 10 10 9 8 8 8 9 8 8 10 14 18 16 10 8 9 11 11 11 13 11 9 9 9 9 9 9 10 10 10 8 5 1 2 3 5 6 7 7 7 8 8 8 9 10 12 13 14 16 17 17 17 17 16 14 12 10 11 15 19 23 22 18 14 9 8 9 nan
nan 12 12 13 12 12 11 11 11 11 10 10 10 10 11 12 11 11 10 10 9 8 7 6 6 6 7 7 9 13 15 12 10 9 10 10 10 11 11 10 10 9 9 10 10 10 10 11 10 6 1 4 6 6 7 7 7 8 8 8 8 8 9 10 11 12 14 15 15 16 17 17 16 15 11 10 13 18 24 27 25 19 12 7 6 nan
nan 9 9 10 11 12 13 12 11 9 8 8 9 9 9 11 11 11 11 10 10 10 10 8 7 6 8 8 8 10 11 12 10 10 10 10 10 11 12 11 10 10 9 10 11 11 11 11 13 16 15 11 9 8 8 8 8 8 9 8 8 9 9 9 10 11 12 13 13 14 15 16 17 16 13 9 8 12 23 31 31 29 19 10 6 nan
nan 7 7 6 7 9 11 11 10 8 6 7 9 10 11 11 11 10 10 10 10 9 9 9 9 8 7 8 9 11 11 9 8 8 11 11 11 11 12 11 11 10 9 10 11 12 11 11 13 16 18 13 10 9 8 9 9 9 9 9 9 9 9 9 9 10 11 11 12 12 13 15 16 16 13 9 7 7 16 28 35 37 27 15 10 nan
nan 7 6 4 3 4 6 7 9 9 8 6 6 7 11 12 11 10 10 10 10 10 9 9 9 9 8 9 10 12 11 8 7 7 8 9 10 11 12 11 10 10 9 10 11 12 12 11 11 13 14 10 8 8 8 8 9 9 9 9 9 9 9 9 9 10 10 11 11 12 12 13 14 15 14 10 7 5 11 23 33 41 38 24 15 nan
nan 6 6 7 6 5 6 8 11 14 14 11 9 5 6 9 9 9 11 11 10 11 11 10 10 9 9 9 10 11 10 9 8 7 7 8 9 11 11 10 9 9 9 10 11 12 11 10 11 13 17 15 11 9 8 8 8 9 9 9 9 9 9 9 9 10 10 10 11 12 12 13 13 13 13 11 8 6 7 16 27 37 41 33 22 nan
nan 9 10 10 9 7 7 7 8 10 13 13 12 10 6 6 6 5 7 10 9 10 11 11 10 11 11 10 9 10 11 10 9 8 8 8 9 10 10 10 10 9 9 11 11 11 11 10 11 13 19 22 17 12 10 9 8 8 9 9 9 9 10 10 10 10 10 10 11 12 12 13 13 13 12 12 10 8 7 11 19 28 38 37 26 nan
nan 5 6 4 1 -3 -7 -6 -5 -4 -3 3 8 11 11 10 8 7 7 9 9 9 9 10 10 9 11 12 11 11 13 12 9 6 6 9 10 10 10 10 10 10 10 12 12 11 10 10 11 12 16 22 21 16 12 10 9 8 8 9 9 10 10 11 11 10 10 11 11 12 13 13 13 13 12 12 11 10 7 8 14 21 32 36 31 nan
nan -9 -10 -10 -10 -11 -13 -14 -14 -14 -17 -15 -8 0 8 12 14 13 11 11 11 10 9 9 8 8 8 10 11 11 13 13 11 7 5 7 9 10 11 11 11 10 10 11 11 10 8 8 9 11 12 18 23 22 15 12 10 8 8 9 9 9 10 11 11 11 11 11 11 12 13 14 14 14 13 13 12 11 8 6 9 15 26 36 39 nan
nan -8 -9 -9 -7 -4 -3 -4 -4 -3 -6 -13 -18 -17 -8 5 11 13 12 12 11 10 9 8 8 8 8 8 10 11 12 12 11 10 7 6 8 10 11 11 11 10 11 11 11 10 8 7 8 10 10 13 19 23 19 14 11 10 9 9 9 10 10 11 12 12 12 12 12 12 13 14 15 14 14 14 13 13 9 6 7 11 19 34 47 nan
nan 10 9 8 7 7 8 9 11 12 12 6 -1 -9 -10 -1 6 10 12 12 12 11 9 8 8 8 9 9 9 11 11 11 12 12 10 7 8 10 11 11 11 10 11 11 12 13 12 10 10 10 10 9 12 18 22 19 16 15 14 12 11 11 11 11 12 12 12 12 13 13 14 15 15 15 15 14 14 14 11 7 6 10 19 27 36 nan
nan 27 25 22 21 20 20 23 24 24 21 19 16 12 6 3 6 9 12 13 13 11 10 9 8 7 8 9 10 11 11 12 13 13 10 7 8 10 11 10 10 10 10 10 12 13 15 14 13 11 11 9 9 12 20 23 23 24 23 20 17 15 13 12 12 12 12 12 13 13 14 16 16 16 16 15 15 14 13 8 7 10 19 24 25 nan
nan 31 32 32 31 31 31 31 31 29 27 25 24 23 18 10 9 10 13 13 12 11 10 10 9 8 7 9 10 12 13 15 16 14 9 5 6 9 12 11 10 10 9 9 10 12 14 15 14 13 13 13 11 10 14 19 21 23 25 26 25 22 17 14 13 13 13 13 13 14 15 16 17 17 17 16 16 15 14 11 7 6 11 17 18 nan
nan 23 25 27 29 29 29 26 25 26 28 30 31 29 22 14 11 11 12 13 12 11 10 9 9 8 7 7 8 9 13 18 18 14 8 5 7 10 12 11 10 11 9 7 7 8 11 14 15 16 15 15 14 13 12 13 14 15 16 20 22 22 18 16 15 15 16 15 15 14 15 17 18 19 19 18 17 15 15 11 5 1 4 10 13 nan
nan 17 17 18 19 19 18 17 17 19 22 26 28 26 21 15 11 9 10 11 11 11 10 9 9 9 7 5 4 4 8 15 19 15 5 3 8 12 12 11 10 11 11 8 6 5 7 10 12 13 14 15 15 15 15 13 11 11 11 12 14 17 19 19 19 19 19 18 18 18 18 18 19 20 20 20 18 17 15 11 4 -2 -1 7 10 nan
nan 13 12 12 12 12 12 12 12 12 14 16 17 17 17 17 14 11 8 10 11 11 10 9 9 9 9 7 5 3 5 11 16 15 4 1 6 11 13 11 10 10 11 10 8 6 6 7 7 8 10 12 12 14 15 14 12 11 11 10 10 13 19 19 20 20 18 20 22 23 22 23 23 23 24 23 22 21 18 14 6 -4 -9 -1 7 nan
nan 9 9 10 10 10 10 9 9 9 10 11 12 13 13 15 16 15 11 10 10 11 10 9 9 8 8 9 9 8 7 11 14 14 6 1 5 9 13 12 10 9 10 11 10 8 8 8 6 6 8 10 10 11 13 14 13 13 12 10 10 11 16 16 16 16 15 17 18 20 23 24 25 26 27 27 26 25 22 18 12 3 -10 -12 -4 nan
nan 10 11 11 11 11 10 10 10 10 10 12 13 13 13 12 14 15 14 11 10 10 10 10 9 8 7 7 9 10 10 13 15 14 8 4 5 8 11 12 10 9 9 10 10 9 10 11 9 5 5 7 9 10 11 12 13 13 13 12 10 10 12 12 12 12 13 13 13 14 17 18 20 22 25 24 23 24 24 23 20 14 2 -10 -13 nan
nan 13 13 12 12 11 11 12 13 13 13 15 15 16 15 13 12 12 13 12 11 11 10 9 9 8 7 7 6 7 8 12 16 16 11 7 7 7 8 12 12 10 8 8 8 8 9 12 12 10 6 5 7 10 11 12 12 12 12 12 11 11 11 10 9 9 11 10 11 12 12 13 14 15 17 17 17 20 24 27 27 23 15 3 -7 nan
nan 12 11 10 10 9 10 12 14 15 15 16 16 16 15 14 12 11 12 11 10 10 12 12 11 10 6 3 4 5 6 9 13 16 13 9 9 7 7 10 12 11 8 7 7 8 8 9 11 12 12 9 7 8 10 11 12 12 12 13 12 11 11 11 10 9 9 9 9 9 10 11 12 13 14 16 18 20 24 30 33 35 28 18 9 nan
nan 8 7 7 7 7 10 12 13 14 14 13 15 16 16 15 14 12 12 13 11 9 9 11 13 16 13 5 3 1 3 6 9 12 12 9 9 8 7 8 11 11 9 8 9 9 9 8 9 10 11 12 11 9 8 9 11 11 12 13 12 12 12 11 10 9 8 10 9 9 10 11 12 13 15 19 19 20 20 23 29 38 41 39 34 nan
nan 6 5 4 6 8 11 12 13 13 13 13 13 14 15 17 17 15 14 15 14 12 9 7 10 15 18 14 10 6 5 7 9 9 10 8 8 9 9 8 9 10 10 9 9 10 9 9 9 8 7 10 12 12 11 10 10 10 10 11 12 12 12 12 11 9 9 10 11 11 12 13 13 12 13 15 16 15 14 13 16 23 34 46 54 nan
nan 8 8 10 12 14 14 13 13 13 12 12 12 13 15 17 18 18 17 16 15 15 14 10 8 11 15 16 16 14 10 10 10 8 9 9 8 8 9 9 9 10 10 10 10 10 9 8 8 8 7 7 9 10 10 10 9 9 7 7 10 13 13 11 11 10 10 10 10 11 11 12 12 11 11 11 12 12 11 11 12 14 20 30 41 nan
nan 13 15 18 19 18 16 13 11 10 9 10 11 13 13 14 15 16 17 17 17 16 16 14 11 11 12 14 15 16 15 12 12 8 8 11 8 6 7 9 9 10 11 11 10 11 9 8 8 8 8 7 8 8 9 10 10 9 6 6 9 12 13 12 10 10 10 10 10 9 8 9 11 11 11 10 10 11 11 11 11 12 13 15 21 nan
nan 17 17 16 15 14 12 9 8 8 9 10 11 11 11 12 12 12 13 14 15 15 14 13 12 12 11 12 13 15 15 15 14 12 11 12 9 6 5 6 8 9 10 11 11 11 11 9 8 9 9 8 8 8 8 10 12 12 10 7 8 9 13 14 12 12 10 9 10 11 9 9 11 13 12 11 11 11 11 10 10 9 8 9 11 nan
nan 13 11 11 11 10 9 10 11 12 12 11 10 11 11 11 10 10 11 12 13 13 13 12 12 11 10 10 11 13 15 16 16 15 13 12 11 8 6 6 6 7 8 9 11 13 13 11 9 8 9 10 9 8 8 9 11 12 13 11 8 6 9 14 15 15 12 10 10 10 11 10 10 11 12 12 12 12 13 13 12 10 7 7 9 nan
nan 10 9 11 12 13 14 15 14 14 12 11 10 10 11 11 10 10 12 12 13 12 12 12 13 13 12 11 11 11 13 17 17 17 17 14 9 6 8 8 7 7 6 5 8 10 13 14 12 11 10 9 9 9 8 9 10 10 12 12 9 6 6 10 13 13 12 11 10 10 10 9 9 10 10 11 12 13 13 12 12 13 11 9 9 nan
nan 10 10 12 13 13 13 12 12 12 11 11 10 10 11 11 12 12 10 10 11 11 10 10 10 12 13 13 12 11 12 14 15 16 21 22 18 10 6 7 8 9 8 6 6 6 8 11 12 12 12 12 11 10 9 8 9 10 11 11 10 8 8 9 11 11 11 11 10 11 10 9 9 9 9 10 10 11 13 13 12 12 10 10 10 nan
nan 9 10 11 11 10 9 10 11 11 10 10 11 11 11 11 12 12 11 9 10 11 11 9 8 8 9 10 11 11 11 11 12 13 17 21 22 19 14 11 9 8 8 9 8 7 6 7 9 11 12 13 13 12 12 11 10 10 12 12 11 10 10 10 10 10 11 10 10 11 11 10 9 9 8 9 9 9 11 12 12 11 10 10 10 nan
nan 8 9 9 9 9 10 10 10 10 9 11 12 12 12 12 10 10 11 11 11 12 13 12 11 9 7 8 9 9 10 9 10 11 13 16 17 17 16 16 15 10 8 9 9 8 7 7 8 8 9 10 12 12 13 13 12 11 11 12 11 10 11 11 12 12 12 10 10 11 11 9 9 9 9 9 8 8 9 10 11 11 11 11 10 nan
nan 9 9 9 9 9 9 10 9 8 9 11 12 13 14 11 9 7 9 11 12 13 14 13 13 12 11 9 9 9 8 8 9 10 11 13 14 14 14 14 16 15 13 11 11 9 9 9 8 7 6 7 8 10 12 13 13 12 12 11 11 10 10 10 11 12 12 12 12 11 9 7 9 10 10 9 8 9 9 8 9 9 10 10 10 nan
nan 11 10 10 9 9 9 8 8 8 9 10 11 12 12 12 11 11 10 11 11 12 13 13 12 12 12 11 11 11 10 8 9 9 11 12 13 13 13 12 13 13 15 15 14 13 14 14 12 8 4 2 3 5 8 11 12 12 12 12 12 11 10 11 12 12 12 13 13 12 8 6 8 10 11 9 8 9 9 9 8 9 9 10 10 nan
nan 11 11 10 10 9 9 9 8 9 9 10 10 10 10 12 14 16 14 14 13 13 13 13 12 11 10 10 11 11 10 9 9 9 10 11 12 13 12 12 11 10 11 13 13 13 14 17 19 19 12 2 -3 -3 3 7 9 11 12 12 12 12 11 11 12 12 12 12 13 13 9 7 8 9 10 10 10 9 9 9 9 9 9 10 10 nan
nan nan nan nan nan nan nan nan nan nan nan nan nan nan nan nan nan nan nan nan nan nan nan nan nan nan nan nan nan nan nan nan nan nan nan nan nan nan nan nan nan nan nan nan nan nan nan nan nan nan nan nan nan nan nan nan nan nan nan nan nan nan nan nan nan nan nan nan nan nan nan nan nan nan nan nan nan nan nan nan nan nan nan nan nan nan
CAPE
nan nan nan nan nan nan nan nan nan nan nan nan nan nan nan nan nan nan nan nan nan nan nan nan nan nan nan 13 37 37 57 65 77 77 78 71 66 66 69 68 68 68 71 77 77 82 83 87 87 92 99 104 116 116 128 143 143 149 150 151 151 140 130 117 117 112 118 133 163 163 203 234 286 286 338 386 418 418 413 381 381 363 308 302 302 296
nan nan nan nan nan nan nan nan nan nan nan nan nan nan nan nan nan nan nan nan nan nan nan nan nan nan nan nan 21 21 37 51 64 64 71 69 65 65 66 63 63 68 66 71 71 78 84 89 89 92 97 104 109 109 114 130 130 140 144 145 145 145 136 124 124 119 122 136 161 161 209 249 295 295 336 390 410 410 379 364 364 328 288 275 275 279
nan nan nan nan nan nan nan nan nan nan nan nan nan nan nan nan nan nan nan nan nan nan nan nan nan nan nan nan 15 15 27 44 54 54 62 63 61 61 60 57 57 60 62 65 65 69 75 83 83 92 100 105 107 107 111 122 122 124 129 134 134 136 135 126 126 117 120 134 157 157 195 240 285 285 313 382 379 379 337 305 305 298 293 290 290 276
nan nan nan nan nan nan nan nan nan nan nan nan nan nan nan nan nan nan nan nan nan nan nan nan nan nan nan nan nan nan 19 32 50 50 52 58 61 61 59 54 54 58 59 62 62 65 65 72 72 85 93 108 112 112 112 119 119 118 123 128 128 134 130 126 126 119 115 126 140 140 159 192 227 227 268 302 306 306 288 286 286 320 331 316 316 319
nan nan nan nan nan nan nan nan nan nan nan nan nan nan nan nan nan nan nan nan nan nan nan nan nan nan nan nan nan nan 9 33 46 46 54 60 64 64 65 68 68 63 65 65 65 68 65 65 65 69 82 98 108 108 114 121 121 121 120 124 124 132 131 133 133 128 118 118 127 127 132 143 166 166 209 234 263 263 263 272 272 313 340 338 338 326
nan nan nan nan nan nan nan nan nan nan nan nan nan nan nan nan nan nan nan nan nan nan nan nan nan nan nan nan nan nan 6 27 46 46 55 61 66 66 72 78 78 75 76 75 75 71 72 65 65 67 73 84 95 95 108 115 115 121 119 128 128 136 136 135 135 134 126 122 120 120 121 121 131 131 161 199 214 214 207 210 210 286 313 340 340 333
nan nan nan nan nan nan nan nan nan nan nan nan nan nan nan nan nan nan nan nan nan nan nan nan nan nan nan nan nan nan 4 18 40 40 45 59 68 68 73 81 81 85 83 82 82 80 72 66 66 63 66 73 80 80 89 104 104 112 115 125 125 132 137 134 134 134 128 125 120 120 116 114 121 121 137 168 175 175 164 189 189 248 298 314 314 311
nan nan nan nan nan nan nan nan nan nan nan nan nan nan nan nan nan nan nan nan nan nan nan nan nan nan nan nan nan nan nan nan nan nan nan nan 3 3 10 24 24 35 42 44 44 45 43 41 41 43 43 48 56 56 65 75 75 84 93 102 102 111 121 130 130 128 126 127 125 125 113 107 107 107 112 116 127 127 146 163 163 176 222 256 256 269
nan nan nan nan nan nan nan nan nan nan nan nan nan nan nan nan nan nan nan nan nan nan nan nan nan nan nan nan nan nan nan nan nan nan nan nan nan nan nan 4 4 17 25 28 28 27 31 30 30 32 35 40 47 47 56 62 62 71 78 86 86 97 112 126 126 129 129 124 124 124 113 108 111 111 114 120 128 128 125 133 133 143 166 202 202 247
nan nan nan nan nan nan nan nan nan nan nan nan nan nan nan nan nan nan nan nan nan nan nan nan nan nan nan nan nan nan nan nan 6 6 15 3 9 9 2 5 5 4 23 27 27 25 26 27 27 28 32 37 43 43 45 51 51 57 62 69 69 79 95 114 114 126 126 132 125 125 115 112 112 112 119 125 127 127 122 125 125 123 140 164 164 207
nan nan nan nan nan nan nan nan nan nan nan nan nan nan nan nan nan nan nan nan nan nan nan nan nan nan nan nan nan nan nan nan nan nan nan nan 4 4 10 7 7 14 21 22 22 22 19 19 19 23 25 31 33 33 34 36 36 42 50 57 57 65 79 101 101 114 123 128 128 128 119 115 122 122 127 133 133 133 133 134 134 133 141 151 151 178
nan nan nan nan nan nan nan nan nan nan nan nan nan nan nan nan nan nan nan nan nan nan nan nan nan nan nan nan nan nan nan nan nan nan nan nan nan nan nan nan nan nan nan nan nan 0 4 7 7 8 10 10 17 17 19 20 20 31 40 51 51 58 69 86 86 102 115 124 129 129 125 129 135 135 141 144 142 142 144 145 145 147 149 151 151 171
nan nan nan nan nan nan nan nan nan nan nan nan nan nan nan nan nan nan nan nan nan nan nan nan nan nan nan nan nan nan nan nan nan nan nan nan nan nan nan nan nan nan nan nan nan nan nan nan nan 0 3 3 7 7 10 12 12 21 33 44 44 52 64 73 73 88 104 118 123 123 130 134 141 141 158 160 152 152 147 156 156 149 161 164 164 174
nan nan nan nan nan nan nan nan nan nan nan nan nan nan nan nan nan nan nan nan nan nan nan nan nan nan nan nan nan nan nan nan nan nan nan nan nan nan nan nan nan nan nan nan nan nan nan nan nan nan nan nan 0 0 1 4 4 10 22 35 35 47 57 66 66 79 95 109 125 125 131 135 141 141 162 168 166 166 156 156 156 159 162 168 168 186
nan nan nan nan nan nan nan nan nan nan nan nan nan nan nan nan nan nan nan nan nan nan nan nan nan nan nan nan nan nan nan nan nan nan nan nan nan nan nan nan nan nan nan nan nan nan nan nan nan nan nan nan nan nan nan nan nan 7 14 26 26 40 52 60 60 72 83 105 120 120 132 135 140 140 147 168 165 165 156 160 160 161 165 168 168 179
nan nan nan nan nan nan nan nan nan nan nan nan nan nan nan nan nan nan nan nan nan nan nan nan nan nan nan nan nan nan nan nan nan nan nan nan nan nan nan nan nan nan nan nan nan nan nan nan nan nan nan nan nan nan 0 2 2 8 14 25 25 35 45 57 57 68 77 96 110 110 126 127 128 128 142 153 164 164 160 157 157 169 165 162 162 163
nan nan nan nan nan nan nan nan nan nan nan nan nan nan nan nan nan nan nan nan nan nan nan nan nan nan nan nan nan nan nan nan nan nan nan nan nan nan nan nan nan nan nan nan nan nan nan nan nan nan nan nan nan nan 1 4 4 9 14 25 25 34 43 52 52 62 76 89 106 106 116 122 124 124 134 145 156 156 161 166 166 170 170 164 164 158
nan nan nan nan nan nan nan nan nan nan nan nan nan nan nan nan nan nan nan nan nan nan nan nan nan nan nan nan nan nan nan nan nan nan nan nan nan nan nan nan nan nan nan nan nan nan nan nan nan nan nan nan 1 1 5 10 10 13 18 29 29 35 43 51 51 60 73 85 99 99 108 114 125 125 130 141 150 150 159 173 173 184 174 156 156 157
nan nan nan nan nan nan nan nan nan nan nan nan nan nan nan nan nan nan nan nan nan nan nan nan nan nan nan nan nan nan nan nan nan nan nan nan nan nan nan nan nan nan nan nan nan nan nan nan nan nan nan 2 7 7 13 15 15 21 24 33 33 42 44 49 49 57 71 84 96 96 110 115 119 119 132 134 141 141 150 169 169 186 175 156 156 156
nan nan nan nan nan nan nan nan nan nan nan nan nan nan nan nan nan nan nan nan nan nan nan nan nan nan nan nan nan nan nan nan nan nan nan nan nan nan nan nan nan nan nan nan nan nan nan nan nan nan nan 1 9 9 14 20 20 25 32 39 39 44 47 47 47 53 63 78 88 88 101 113 122 122 128 125 122 122 128 149 149 161 168 152 152 153
nan nan nan nan nan nan nan nan nan nan nan nan nan nan nan nan nan nan nan nan nan nan nan nan nan nan nan nan nan nan nan nan nan nan nan nan nan nan nan nan nan nan nan nan nan nan nan nan nan nan nan 1 10 10 16 22 22 27 37 41 41 45 48 48 48 51 58 65 78 78 94 105 120 120 125 111 101 101 105 127 127 155 157 150 150 151
nan nan nan nan nan nan nan nan nan nan nan nan nan nan nan nan nan nan nan nan nan nan nan nan nan nan nan nan nan nan nan nan nan nan nan nan nan nan nan nan nan nan nan nan nan nan nan nan nan nan nan 1 8 8 16 22 22 28 40 45 45 45 48 46 46 48 53 58 69 69 81 91 108 108 109 101 78 78 83 103 103 127 151 144 144 143
nan nan nan nan nan nan nan nan nan nan nan nan nan nan nan nan nan nan nan nan nan nan nan nan nan nan nan nan nan nan nan nan nan nan nan nan nan nan nan nan nan nan nan nan nan nan nan nan nan nan nan 2 8 8 15 22 22 30 39 45 45 48 48 48 48 49 51 56 65 65 72 82 93 93 96 89 77 77 70 84 84 109 135 144 144 150
nan nan nan nan nan nan nan nan nan nan nan nan nan nan nan nan nan nan nan nan nan nan nan nan nan nan nan nan nan nan nan nan nan nan nan nan nan nan nan nan nan nan nan nan nan nan nan nan nan nan nan nan 4 4 11 17 17 26 34 42 42 47 49 50 50 49 54 56 61 61 68 75 85 85 89 89 80 80 74 77 77 99 130 138 138 161
nan nan nan nan nan nan nan nan nan nan nan nan nan nan nan nan nan nan nan nan nan nan nan nan nan nan nan nan nan nan nan nan nan nan nan nan nan nan nan nan nan nan nan nan nan nan nan nan nan nan nan nan 1 1 6 13 13 17 28 37 37 45 46 47 47 50 56 60 62 62 67 70 77 77 81 81 83 83 72 66 66 81 102 127 127 153
nan nan nan nan nan 3 13 18 20 20 4 nan nan nan nan nan nan nan nan nan nan nan nan nan nan nan nan nan nan nan nan nan nan nan nan nan nan nan nan nan nan nan nan nan nan nan nan nan nan nan nan nan nan nan 2 7 7 12 17 26 26 35 39 44 44 49 55 58 63 63 64 67 75 75 73 76 82 82 78 61 61 58 75 111 111 133
90 86 92 92 92 91 84 93 96 96 110 50 nan nan nan nan nan nan nan nan nan nan nan nan nan nan nan nan nan nan nan nan nan nan nan nan nan nan nan nan nan nan nan nan nan nan nan nan nan nan nan nan nan nan 0 4 4 7 13 18 18 27 34 38 38 44 51 60 65 65 68 68 74 74 77 81 84 84 84 60 60 50 58 83 83 127
103 112 122 133 133 125 127 138 151 151 163 167 154 154 11 nan nan nan nan nan nan nan nan nan nan nan nan nan nan nan nan nan nan nan nan nan nan nan nan nan nan nan nan nan nan nan nan nan nan nan nan nan nan nan nan 1 1 4 8 11 11 17 26 32 32 42 48 56 67 67 71 72 74 74 78 83 89 89 86 64 64 38 40 43 43 30
47 63 80 100 100 103 114 125 145 145 166 196 208 208 114 nan nan nan nan nan nan nan nan nan nan nan nan nan nan nan nan nan nan nan nan nan nan nan nan nan nan nan nan nan nan nan nan nan nan nan nan nan nan nan nan nan nan 1 5 6 6 10 15 25 25 37 45 53 61 61 73 77 77 77 83 88 96 96 94 71 71 41 25 32 32 17
nan 3 13 37 37 63 64 38 68 68 123 162 177 177 148 0 nan nan nan nan nan nan nan nan nan nan nan nan nan nan nan nan nan nan nan nan nan nan nan nan nan nan nan nan nan nan nan nan nan nan nan nan nan nan nan nan nan nan nan 1 1 1 6 14 14 29 38 45 57 57 67 79 82 82 86 93 97 97 96 81 81 43 19 24 24 17
nan nan nan nan nan nan nan nan 0 0 44 98 122 122 99 26 nan nan nan nan nan nan nan nan nan nan nan nan nan nan nan nan nan nan nan nan nan nan nan nan nan nan nan nan nan nan nan nan nan nan nan nan nan nan nan nan nan nan nan nan nan nan 1 5 5 17 29 39 48 48 59 72 83 83 85 93 100 100 97 81 81 45 19 16 16 10
nan nan nan nan nan nan nan nan nan nan nan nan nan nan 2 3 4 4 nan nan nan nan nan nan nan nan nan nan nan nan nan nan nan nan nan nan nan nan nan nan nan nan nan nan nan nan nan nan nan nan nan nan nan nan nan nan nan nan nan nan nan nan nan nan nan 2 6 17 28 28 40 49 65 65 82 91 94 94 93 83 83 60 29 13 13 8
nan nan nan nan nan nan 0 nan nan nan nan nan nan nan nan nan 4 4 nan nan nan nan nan nan nan nan nan nan nan nan nan nan nan nan nan nan nan nan nan nan nan nan nan nan nan nan nan nan nan nan nan nan nan nan nan nan nan nan nan nan nan nan nan nan nan nan 0 4 13 13 32 42 59 59 73 85 89 89 92 86 86 75 50 17 17 14
nan nan nan nan nan nan 0 1 0 0 nan nan nan nan nan nan nan nan 2 nan nan nan nan nan nan nan nan nan nan nan nan nan nan nan nan nan nan nan nan nan nan nan nan nan nan nan nan nan nan nan nan nan nan nan nan nan nan nan nan nan nan nan nan nan nan nan nan nan nan nan 11 25 50 50 62 73 86 86 87 90 90 82 73 35 35 19
nan nan nan nan nan nan 0 3 4 4 3 3 0 0 nan nan nan nan nan nan nan nan nan nan nan nan nan nan nan nan nan nan nan nan nan nan nan nan nan nan nan nan nan nan nan nan nan nan nan nan nan nan nan nan nan nan nan nan nan nan nan nan nan nan nan nan nan nan 0 0 6 14 28 28 41 60 76 76 82 87 87 84 83 73 73 39
nan nan nan nan nan 0 5 15 18 18 21 14 0 0 nan nan nan nan nan nan nan nan nan nan nan nan nan nan nan nan nan nan nan nan nan nan nan nan nan nan nan nan nan nan nan nan nan nan nan nan nan nan nan nan nan nan nan nan nan nan nan nan nan nan nan nan nan nan nan nan 7 15 19 19 25 55 70 70 76 82 82 87 90 84 84 67
nan nan 0 0 0 4 16 18 29 29 37 14 nan nan nan nan nan nan nan nan nan nan nan nan nan nan nan nan nan nan nan nan nan nan nan nan nan nan nan nan nan nan nan nan nan nan nan nan nan nan nan nan nan nan nan nan nan nan nan nan nan nan nan nan nan nan nan nan nan nan 3 16 22 22 24 46 53 53 72 76 76 78 90 90 90 82
nan nan nan nan nan nan 6 23 39 39 40 22 3 3 nan nan nan nan nan nan nan nan nan nan nan nan nan nan nan nan nan nan nan nan nan nan nan nan nan nan nan nan nan nan nan nan nan nan nan nan nan nan nan nan nan nan nan nan nan nan nan nan nan nan nan nan nan nan nan nan 2 13 15 15 16 22 25 25 26 22 22 44 86 87 87 91
0 nan nan nan nan nan 9 28 33 33 30 28 19 19 3 nan nan nan nan nan nan nan nan nan nan nan nan nan nan nan nan nan nan nan nan nan nan nan nan nan nan nan nan nan nan nan nan nan nan nan nan nan nan nan nan nan nan nan nan nan nan nan nan nan nan nan nan nan nan nan nan 0 7 7 4 2 5 5 5 2 2 4 10 30 30 70
nan nan nan 1 1 0 3 18 9 9 4 23 25 25 7 nan nan nan nan nan nan nan nan nan nan nan nan nan nan nan nan nan nan nan nan nan nan nan nan nan nan nan nan nan nan nan nan nan nan nan nan nan nan nan nan nan nan nan nan nan nan nan nan nan nan nan nan nan nan nan nan nan nan nan 0 nan nan nan nan nan nan 0 5 0 0 nan
2 6 7 4 4 10 30 38 22 22 10 20 12 12 2 nan nan nan nan nan nan 0 nan nan nan nan nan nan nan nan nan nan nan nan nan nan nan nan nan nan nan nan nan nan nan nan nan nan nan nan nan nan nan nan nan nan nan nan 0 nan nan nan nan nan nan nan nan nan nan nan nan nan nan nan nan nan nan nan nan nan nan nan 4 2 2 0
49 53 35 21 21 22 22 17 20 20 11 7 9 9 3 nan nan nan nan nan nan nan nan nan nan nan nan nan nan nan nan nan nan nan nan nan nan nan nan nan nan nan nan nan nan nan nan nan nan nan nan nan nan nan nan nan nan nan 1 nan nan nan nan nan nan nan nan nan nan nan nan nan nan nan nan nan nan nan nan nan nan nan 2 1 1 1
51 52 45 41 41 25 12 6 4 4 3 0 0 0 1 0 0 0 nan nan nan nan nan nan nan nan nan nan nan nan nan nan nan nan nan nan nan nan nan nan nan nan nan nan nan nan nan nan nan nan nan nan nan nan nan nan nan nan nan nan nan nan nan nan nan nan nan nan nan nan nan nan nan nan nan nan nan nan nan nan nan 1 1 nan nan nan
30 32 33 31 31 24 21 7 nan nan nan nan nan nan nan 2 10 10 2 nan nan nan nan nan nan nan nan nan nan nan nan nan nan nan nan nan nan nan nan nan nan nan nan nan nan nan nan nan nan nan nan nan nan nan nan nan nan nan nan nan nan nan nan nan nan nan nan nan nan nan nan nan nan nan nan nan nan nan nan nan nan nan nan nan nan nan
nan 9 24 36 36 40 28 11 3 3 1 2 3 3 3 6 22 22 3 nan nan nan nan nan nan nan nan nan nan nan nan nan nan nan nan 1 3 3 nan nan nan nan nan nan nan nan nan nan nan nan nan nan nan nan nan nan nan nan nan nan nan nan nan nan nan nan nan nan nan nan nan nan nan nan nan nan nan nan nan nan nan nan nan nan nan nan
nan 12 25 30 30 30 40 38 25 25 17 21 16 16 9 12 16 16 13 3 3 0 nan nan nan nan nan nan nan nan nan nan nan nan nan nan 0 0 nan nan nan nan nan nan nan nan nan nan nan nan nan nan nan nan nan nan nan nan nan nan nan nan nan nan nan nan nan nan nan nan nan nan nan nan nan nan nan nan nan nan nan nan nan nan nan nan
nan nan 6 10 10 16 15 17 17 17 21 25 19 19 16 8 11 11 13 11 11 1 nan nan nan nan nan nan nan nan nan nan nan nan nan nan nan nan nan nan nan nan nan nan nan nan nan nan nan nan nan nan nan nan nan nan nan nan nan nan nan nan nan nan nan nan nan nan nan nan nan nan nan nan nan nan nan nan nan nan nan nan nan nan nan nan
nan nan 1 4 4 4 4 3 8 8 21 25 21 21 21 16 14 14 12 6 6 6 3 nan nan nan nan nan nan nan nan nan nan nan nan nan nan nan nan nan nan nan nan nan nan nan nan nan nan nan nan nan nan nan nan nan nan nan nan nan nan nan nan nan nan nan nan nan nan nan nan nan nan nan nan nan nan nan nan nan nan nan nan nan nan nan
nan nan nan nan nan 0 nan 0 3 3 14 24 31 31 25 42 80 80 36 14 14 4 1 nan nan nan nan nan nan nan nan nan nan nan nan nan nan nan nan nan nan nan nan nan nan nan nan nan nan nan nan nan nan nan nan nan nan nan nan nan nan nan nan nan nan nan nan nan nan nan nan nan nan nan nan nan nan nan nan nan nan nan nan nan nan nan
nan nan nan nan nan nan nan nan nan nan 2 19 22 22 15 16 38 38 53 31 31 10 1 nan nan nan nan nan nan nan nan nan nan nan nan nan nan nan nan nan nan nan nan nan nan nan nan nan nan nan 3 nan nan nan nan nan nan nan nan nan nan nan nan nan nan nan nan nan nan nan nan nan nan nan nan nan nan nan nan nan nan nan nan nan nan nan
3 nan nan nan nan nan nan nan nan nan nan 2 4 4 8 17 33 33 31 21 21 9 1 nan nan nan nan nan nan nan nan nan nan nan nan nan nan nan nan nan nan nan nan nan nan nan nan nan nan nan 15 31 8 8 nan nan nan nan nan nan nan nan nan nan nan nan 1 nan nan nan nan nan nan nan nan nan nan nan nan nan nan nan nan nan nan nan